Back to Top

Language: 

My Weather Underground Personal Weather Station Historical Data with Graphs...

Delerius Weather Station Historical Data
Daily Summary for July 24, 2017 Units:  Metric    English   Both
« Previous Day
Next Day »
Daily Weekly Monthly Yearly Custom
  High: Low: Average:
Temperature: 19.9 °C 13.1 °C 15.6 °C
Dew Point: 13.8 °C 11.1 °C 12.6 °C
Humidity: 95 % 67 % 83 %
Wind Speed: 17.7 km/h 1.6 km/h 11.3 km/h
Wind Gust: 38.6 km/h - -
Wind:- - West
Pressure: 1017.8 hPa 1010 hPa -
Precipitation: 0.25 mm    
Historical Graphs
 
 
Tabular Data for July 24, 2017
Time Temperature Dew Point Pressure Wind Wind Speed Wind Gust Humidity Rainfall Rate (Hourly) solar Conditions
00:01 14.6 °C 13.8 °C 1010 hPa NNW 12.9 km/h 24.1 km/h 95 % 0.51 mm 0 W/m2
00:06 14.6 °C 13.8 °C 1010.4 hPa NNW 12.9 km/h 22.5 km/h 95 % 0.51 mm 0 W/m2
00:11 14.6 °C 13.8 °C 1010.4 hPa NNW 12.9 km/h 22.5 km/h 95 % 0.51 mm 0 W/m2
00:16 14.5 °C 13.7 °C 1010.4 hPa NNW 11.3 km/h 25.7 km/h 95 % 0.51 mm 0 W/m2
00:21 14.5 °C 13.7 °C 1010.4 hPa NNW 11.3 km/h 25.7 km/h 95 % 0.51 mm 0 W/m2
00:26 14.4 °C 13.6 °C 1010.4 hPa NNW 11.3 km/h 30.6 km/h 95 % 0.51 mm 0 W/m2
00:31 14.4 °C 13.6 °C 1010.4 hPa NNW 12.9 km/h 30.6 km/h 95 % 0.51 mm 0 W/m2
00:36 14.4 °C 13.6 °C 1010.4 hPa NNW 14.5 km/h 30.6 km/h 95 % 0.51 mm 0 W/m2
00:41 14.3 °C 13.5 °C 1010.4 hPa NNW 16.1 km/h 30.6 km/h 95 % 0.51 mm 0 W/m2
00:46 14.3 °C 13.5 °C 1010.4 hPa NNW 12.9 km/h 37 km/h 95 % 0.51 mm 0 W/m2
00:51 14.3 °C 13.5 °C 1010.7 hPa NNW 11.3 km/h 37 km/h 95 % 0.51 mm 0 W/m2
00:56 14.3 °C 13.5 °C 1010.7 hPa NNW 12.9 km/h 32.2 km/h 95 % 0.25 mm 0 W/m2
01:01 14.2 °C 13.4 °C 1010.7 hPa NNW 14.5 km/h 32.2 km/h 95 % 0.25 mm 0 W/m2
01:06 14.2 °C 13.4 °C 1010.7 hPa NNW 12.9 km/h 30.6 km/h 95 % 0.25 mm 0 W/m2
01:12 14.2 °C 13.4 °C 1010.7 hPa NNW 12.9 km/h 25.7 km/h 95 % 0.25 mm 0 W/m2
01:16 14.2 °C 13.2 °C 1010.7 hPa NNW 14.5 km/h 29 km/h 94 % 0.25 mm 0 W/m2
01:22 14.2 °C 13.2 °C 1011.1 hPa NNW 16.1 km/h 29 km/h 94 % 0.25 mm 0 W/m2
01:27 14.2 °C 13.2 °C 1011.1 hPa NNW 14.5 km/h 33.8 km/h 94 % 0 mm 0 W/m2
01:32 14.2 °C 13.2 °C 1011.1 hPa North 14.5 km/h 33.8 km/h 94 % 0 mm 0 W/m2
01:37 14.2 °C 13.2 °C 1011.1 hPa NNW 12.9 km/h 29 km/h 94 % 0 mm 0 W/m2
01:42 14.2 °C 13.2 °C 1011.1 hPa NNW 12.9 km/h 25.7 km/h 94 % 0 mm 0 W/m2
01:47 14.2 °C 13.2 °C 1011.1 hPa NNW 12.9 km/h 25.7 km/h 94 % 0 mm 0 W/m2
01:52 14.2 °C 13.2 °C 1011.1 hPa NNW 12.9 km/h 29 km/h 94 % 0 mm 0 W/m2
01:57 14.2 °C 13.2 °C 1011.1 hPa NNW 11.3 km/h 29 km/h 94 % 0 mm 0 W/m2
02:02 14.2 °C 13.1 °C 1011.1 hPa North 12.9 km/h 33.8 km/h 93 % 0 mm 0 W/m2
02:07 14.2 °C 13.1 °C 1011.1 hPa NNW 16.1 km/h 33.8 km/h 93 % 0 mm 0 W/m2
02:12 14.2 °C 13.1 °C 1011.1 hPa NNW 16.1 km/h 29 km/h 93 % 0 mm 0 W/m2
02:17 14.2 °C 13.1 °C 1011.1 hPa North 12.9 km/h 25.7 km/h 93 % 0 mm 0 W/m2
02:22 14.2 °C 13.1 °C 1011.4 hPa North 12.9 km/h 24.1 km/h 93 % 0 mm 0 W/m2
02:27 14.3 °C 13.2 °C 1011.4 hPa North 12.9 km/h 29 km/h 93 % 0 mm 0 W/m2
02:32 14.3 °C 13.2 °C 1011.4 hPa North 11.3 km/h 29 km/h 93 % 0 mm 0 W/m2
02:37 14.3 °C 13.2 °C 1011.4 hPa North 11.3 km/h 25.7 km/h 93 % 0 mm 0 W/m2
02:42 14.3 °C 13.2 °C 1011.4 hPa NNW 12.9 km/h 25.7 km/h 93 % 0 mm 0 W/m2
02:47 14.4 °C 13.3 °C 1011.4 hPa NNW 11.3 km/h 29 km/h 93 % 0 mm 0 W/m2
02:52 14.4 °C 13.3 °C 1011.4 hPa NNW 11.3 km/h 29 km/h 93 % 0 mm 0 W/m2
02:57 14.4 °C 13.3 °C 1011.4 hPa NNW 11.3 km/h 20.9 km/h 93 % 0 mm 0 W/m2
03:02 14.4 °C 13.3 °C 1011.4 hPa NNW 11.3 km/h 19.3 km/h 93 % 0 mm 0 W/m2
03:07 14.4 °C 13.1 °C 1011.4 hPa NNW 9.7 km/h 20.9 km/h 92 % 0 mm 0 W/m2
03:12 14.4 °C 13.1 °C 1011.7 hPa NNW 9.7 km/h 20.9 km/h 92 % 0 mm 0 W/m2
03:17 14.4 °C 13.1 °C 1011.7 hPa NNW 12.9 km/h 24.1 km/h 92 % 0 mm 0 W/m2
03:22 14.4 °C 13.1 °C 1011.7 hPa NNW 11.3 km/h 24.1 km/h 92 % 0 mm 0 W/m2
03:27 14.4 °C 13.1 °C 1011.7 hPa NW 8 km/h 24.1 km/h 92 % 0 mm 0 W/m2
03:32 14.4 °C 13.1 °C 1011.7 hPa NNW 8 km/h 20.9 km/h 92 % 0 mm 0 W/m2
03:37 14.4 °C 13.1 °C 1011.7 hPa NNW 9.7 km/h 20.9 km/h 92 % 0 mm 0 W/m2
03:42 14.4 °C 13.1 °C 1011.7 hPa NNW 9.7 km/h 20.9 km/h 92 % 0 mm 0 W/m2
03:47 14.4 °C 13.1 °C 1011.7 hPa NNW 11.3 km/h 24.1 km/h 92 % 0 mm 0 W/m2
03:52 14.4 °C 13.1 °C 1011.7 hPa NNW 12.9 km/h 24.1 km/h 92 % 0 mm 0 W/m2
03:57 14.4 °C 12.9 °C 1011.7 hPa NNW 12.9 km/h 22.5 km/h 91 % 0 mm 0 W/m2
04:02 14.4 °C 12.9 °C 1011.7 hPa NNW 11.3 km/h 24.1 km/h 91 % 0 mm 0 W/m2
04:07 14.4 °C 12.9 °C 1011.7 hPa NNW 9.7 km/h 24.1 km/h 91 % 0 mm 0 W/m2
04:12 14.4 °C 12.9 °C 1011.7 hPa NNW 11.3 km/h 25.7 km/h 91 % 0 mm 0 W/m2
04:17 14.4 °C 12.9 °C 1012.1 hPa NNW 12.9 km/h 25.7 km/h 91 % 0 mm 0 W/m2
04:22 14.4 °C 12.9 °C 1012.1 hPa NNW 11.3 km/h 22.5 km/h 91 % 0 mm 0 W/m2
04:27 14.4 °C 12.9 °C 1012.1 hPa NNW 11.3 km/h 22.5 km/h 91 % 0 mm 0 W/m2
04:32 14.4 °C 12.9 °C 1012.1 hPa NNW 11.3 km/h 22.5 km/h 91 % 0 mm 0 W/m2
04:37 14.4 °C 12.9 °C 1012.1 hPa NW 9.7 km/h 25.7 km/h 91 % 0 mm 0 W/m2
04:42 14.4 °C 12.8 °C 1012.1 hPa NW 11.3 km/h 25.7 km/h 90 % 0 mm 0 W/m2
04:47 14.4 °C 12.8 °C 1012.1 hPa NW 12.9 km/h 32.2 km/h 90 % 0 mm 0 W/m2
04:52 14.4 °C 12.8 °C 1012.1 hPa NNW 12.9 km/h 32.2 km/h 90 % 0 mm 0 W/m2
04:57 14.4 °C 12.8 °C 1012.1 hPa NNW 11.3 km/h 22.5 km/h 90 % 0 mm 0 W/m2
05:02 14.3 °C 12.7 °C 1012.1 hPa NNW 11.3 km/h 19.3 km/h 90 % 0 mm 0 W/m2
05:07 14.3 °C 12.7 °C 1012.4 hPa NW 11.3 km/h 24.1 km/h 90 % 0 mm 0 W/m2
05:12 14.3 °C 12.7 °C 1012.4 hPa NW 11.3 km/h 24.1 km/h 90 % 0 mm 0 W/m2
05:17 14.3 °C 12.7 °C 1012.4 hPa NW 9.7 km/h 19.3 km/h 90 % 0 mm 0 W/m2
05:22 14.3 °C 12.7 °C 1012.4 hPa NW 8 km/h 17.7 km/h 90 % 0 mm 0 W/m2
05:27 14.3 °C 12.5 °C 1012.4 hPa NW 11.3 km/h 22.5 km/h 89 % 0 mm 0 W/m2
05:32 14.2 °C 12.4 °C 1012.8 hPa NNW 11.3 km/h 22.5 km/h 89 % 0 mm 0 W/m2
05:37 14.2 °C 12.4 °C 1012.8 hPa NW 9.7 km/h 17.7 km/h 89 % 0 mm 0 W/m2
05:42 14.2 °C 12.4 °C 1012.8 hPa NW 9.7 km/h 24.1 km/h 89 % 0 mm 0 W/m2
05:47 14.2 °C 12.4 °C 1012.8 hPa NW 9.7 km/h 24.1 km/h 89 % 0 mm 0 W/m2
05:52 14.2 °C 12.4 °C 1012.8 hPa NW 8 km/h 17.7 km/h 89 % 0 mm 0 W/m2
05:57 14.2 °C 12.6 °C 1012.4 hPa NW 8 km/h 14.5 km/h 90 % 0 mm 0 W/m2
06:02 14.2 °C 12.6 °C 1012.8 hPa NW 6.4 km/h 19.3 km/h 90 % 0 mm 0 W/m2
06:07 14.2 °C 12.4 °C 1012.8 hPa NW 9.7 km/h 20.9 km/h 89 % 0 mm 0 W/m2
06:12 14.1 °C 12.3 °C 1012.8 hPa NNW 12.9 km/h 29 km/h 89 % 0 mm 0 W/m2
06:17 14.1 °C 12.3 °C 1012.8 hPa NNW 12.9 km/h 29 km/h 89 % 0 mm 7 W/m2
06:22 14.1 °C 12.2 °C 1012.8 hPa NNW 11.3 km/h 24.1 km/h 88 % 0 mm 9 W/m2
06:27 14.1 °C 12.2 °C 1012.8 hPa NNW 11.3 km/h 24.1 km/h 88 % 0 mm 7 W/m2
06:33 14.1 °C 12.2 °C 1012.8 hPa NNW 9.7 km/h 20.9 km/h 88 % 0 mm 5 W/m2
06:38 14.1 °C 12.2 °C 1012.8 hPa NNW 9.7 km/h 22.5 km/h 88 % 0 mm 7 W/m2
06:43 14.1 °C 12.2 °C 1013.1 hPa NNW 11.3 km/h 24.1 km/h 88 % 0 mm 7 W/m2
06:48 14.1 °C 12.2 °C 1013.1 hPa NNW 12.9 km/h 24.1 km/h 88 % 0 mm 9 W/m2
06:53 14.1 °C 12.2 °C 1013.1 hPa NNW 14.5 km/h 30.6 km/h 88 % 0 mm 11 W/m2
06:58 14.1 °C 12.2 °C 1013.1 hPa NNW 12.9 km/h 30.6 km/h 88 % 0 mm 7 W/m2
07:03 14.1 °C 12.2 °C 1013.1 hPa NNW 11.3 km/h 22.5 km/h 88 % 0 mm 7 W/m2
07:08 14.1 °C 12.2 °C 1013.1 hPa NNW 11.3 km/h 25.7 km/h 88 % 0 mm 7 W/m2
07:13 14.1 °C 12.2 °C 1013.1 hPa NW 12.9 km/h 25.7 km/h 88 % 0 mm 9 W/m2
07:18 14.1 °C 12.2 °C 1013.1 hPa NW 14.5 km/h 25.7 km/h 88 % 0 mm 12 W/m2
07:23 14.1 °C 12.3 °C 1013.4 hPa NNW 14.5 km/h 32.2 km/h 89 % 0 mm 18 W/m2
07:28 14.1 °C 12.2 °C 1013.4 hPa NNW 14.5 km/h 37 km/h 88 % 0 mm 16 W/m2
07:33 14.1 °C 12.2 °C 1013.4 hPa NNW 14.5 km/h 37 km/h 88 % 0 mm 12 W/m2
07:38 14.1 °C 12.2 °C 1013.4 hPa NNW 11.3 km/h 19.3 km/h 88 % 0 mm 14 W/m2
07:43 14.1 °C 12.2 °C 1013.4 hPa NNW 9.7 km/h 19.3 km/h 88 % 0 mm 16 W/m2
07:48 14.1 °C 12.2 °C 1013.4 hPa NNW 11.3 km/h 29 km/h 88 % 0 mm 14 W/m2
07:53 14.1 °C 12.2 °C 1013.4 hPa NNW 12.9 km/h 29 km/h 88 % 0 mm 16 W/m2
07:58 14.1 °C 12.2 °C 1013.8 hPa NNW 12.9 km/h 25.7 km/h 88 % 0 mm 18 W/m2
08:03 14.1 °C 12.2 °C 1013.8 hPa NNW 12.9 km/h 24.1 km/h 88 % 0 mm 19 W/m2
08:08 14.1 °C 12.3 °C 1013.8 hPa NNW 11.3 km/h 24.1 km/h 89 % 0 mm 30 W/m2
08:13 14.1 °C 12.3 °C 1013.8 hPa North 8 km/h 19.3 km/h 89 % 0 mm 26 W/m2
08:18 14.1 °C 12.3 °C 1013.8 hPa NNW 8 km/h 17.7 km/h 89 % 0 mm 26 W/m2
08:23 14.1 °C 12.3 °C 1014.1 hPa North 9.7 km/h 17.7 km/h 89 % 0 mm 30 W/m2
08:28 14 °C 12.4 °C 1014.1 hPa North 9.7 km/h 19.3 km/h 90 % 0 mm 26 W/m2
08:33 13.9 °C 12.3 °C 1014.1 hPa North 11.3 km/h 25.7 km/h 90 % 0 mm 25 W/m2
08:39 13.9 °C 12.3 °C 1014.1 hPa NNW 12.9 km/h 33.8 km/h 90 % 0 mm 23 W/m2
08:44 13.9 °C 12.3 °C 1014.1 hPa NNW 14.5 km/h 33.8 km/h 90 % 0 mm 42 W/m2
08:49 13.9 °C 12.3 °C 1014.1 hPa NNW 14.5 km/h 25.7 km/h 90 % 0 mm 72 W/m2
08:54 13.9 °C 12.3 °C 1014.1 hPa NNW 12.9 km/h 24.1 km/h 90 % 0 mm 130 W/m2
08:59 13.9 °C 12.1 °C 1014.4 hPa NNW 12.9 km/h 32.2 km/h 89 % 0 mm 84 W/m2
09:04 14 °C 12.1 °C 1014.4 hPa NNW 12.9 km/h 32.2 km/h 88 % 0 mm 98 W/m2
09:09 14.1 °C 12.2 °C 1014.4 hPa NNW 14.5 km/h 30.6 km/h 88 % 0 mm 116 W/m2
09:14 14.1 °C 11.9 °C 1014.4 hPa NNW 17.7 km/h 32.2 km/h 87 % 0 mm 130 W/m2
09:19 14.2 °C 11.9 °C 1014.4 hPa NNW 17.7 km/h 32.2 km/h 86 % 0 mm 100 W/m2
09:24 14.2 °C 11.9 °C 1014.4 hPa NNW 16.1 km/h 32.2 km/h 86 % 0 mm 153 W/m2
09:29 14.3 °C 12 °C 1014.8 hPa NNW 16.1 km/h 32.2 km/h 86 % 0 mm 248 W/m2
09:34 14.5 °C 12 °C 1014.8 hPa NNW 16.1 km/h 32.2 km/h 85 % 0 mm 197 W/m2
09:39 14.7 °C 12.2 °C 1014.8 hPa NNW 12.9 km/h 29 km/h 85 % 0 mm 176 W/m2
09:44 14.7 °C 12 °C 1014.8 hPa NNW 12.9 km/h 30.6 km/h 84 % 0 mm 195 W/m2
09:49 14.8 °C 12.1 °C 1014.8 hPa NNW 16.1 km/h 35.4 km/h 84 % 0 mm 178 W/m2
09:54 14.8 °C 12.1 °C 1014.8 hPa NNW 14.5 km/h 35.4 km/h 84 % 0 mm 207 W/m2
09:59 14.8 °C 12.1 °C 1014.8 hPa NNW 14.5 km/h 33.8 km/h 84 % 0 mm 167 W/m2
10:04 14.7 °C 12 °C 1014.8 hPa NNW 16.1 km/h 37 km/h 84 % 0 mm 227 W/m2
10:09 14.8 °C 12.3 °C 1014.8 hPa NNW 14.5 km/h 37 km/h 85 % 0 mm 209 W/m2
10:14 14.9 °C 12.2 °C 1014.8 hPa NNW 12.9 km/h 25.7 km/h 84 % 0 mm 179 W/m2
10:19 14.9 °C 12.2 °C 1015.1 hPa NNW 11.3 km/h 25.7 km/h 84 % 0 mm 67 W/m2
10:20 14.9 °C 12.2 °C 1015.1 hPa NNW 12.9 km/h 25.7 km/h 84 % 0 mm 63 W/m2
10:25 14.8 °C 12.1 °C 1015.1 hPa NNW 11.3 km/h 25.7 km/h 84 % 0 mm 63 W/m2
10:30 14.5 °C 12 °C 1015.1 hPa North 14.5 km/h 35.4 km/h 85 % 0 mm 69 W/m2
10:35 14.3 °C 12 °C 1015.1 hPa North 16.1 km/h 35.4 km/h 86 % 0 mm 72 W/m2
10:40 14.2 °C 12.1 °C 1015.5 hPa North 14.5 km/h 25.7 km/h 87 % 0 mm 97 W/m2
10:45 14.1 °C 11.9 °C 1015.1 hPa North 16.1 km/h 32.2 km/h 87 % 0 mm 98 W/m2
10:50 14 °C 11.9 °C 1015.1 hPa North 14.5 km/h 32.2 km/h 87 % 0 mm 137 W/m2
10:55 13.9 °C 11.8 °C 1015.1 hPa North 12.9 km/h 25.7 km/h 87 % 0 mm 167 W/m2
11:00 14.1 °C 11.9 °C 1015.1 hPa NNW 12.9 km/h 25.7 km/h 87 % 0 mm 153 W/m2
11:05 14.1 °C 11.9 °C 1015.1 hPa North 12.9 km/h 24.1 km/h 87 % 0 mm 125 W/m2
11:10 14.1 °C 11.9 °C 1015.5 hPa NNW 14.5 km/h 24.1 km/h 87 % 0 mm 134 W/m2
11:15 14.1 °C 11.9 °C 1015.5 hPa NNW 14.5 km/h 30.6 km/h 87 % 0 mm 181 W/m2
11:20 14.2 °C 12.1 °C 1015.5 hPa NNW 16.1 km/h 30.6 km/h 87 % 0 mm 232 W/m2
11:21 14.2 °C 12.1 °C 1015.5 hPa NNW 14.5 km/h 30.6 km/h 87 % 0 mm 225 W/m2
11:26 14.4 °C 12.1 °C 1015.5 hPa NNW 16.1 km/h 29 km/h 86 % 0 mm 176 W/m2
11:31 14.4 °C 11.9 °C 1015.5 hPa NNW 14.5 km/h 25.7 km/h 85 % 0 mm 186 W/m2
11:36 14.5 °C 12 °C 1015.5 hPa NNW 14.5 km/h 25.7 km/h 85 % 0 mm 221 W/m2
11:41 14.6 °C 11.9 °C 1015.5 hPa NNW 12.9 km/h 24.1 km/h 84 % 0 mm 209 W/m2
11:46 14.7 °C 12 °C 1015.5 hPa NNW 14.5 km/h 29 km/h 84 % 0 mm 172 W/m2
11:51 14.8 °C 12.1 °C 1015.5 hPa NNW 14.5 km/h 29 km/h 84 % 0 mm 171 W/m2
11:56 14.8 °C 12.1 °C 1015.5 hPa NNW 14.5 km/h 32.2 km/h 84 % 0 mm 128 W/m2
12:01 14.8 °C 12.1 °C 1015.5 hPa NNW 14.5 km/h 32.2 km/h 84 % 0 mm 123 W/m2
12:03 14.8 °C 12.1 °C 1015.5 hPa NNW 14.5 km/h 32.2 km/h 84 % 0 mm 141 W/m2
12:07 14.8 °C 12.1 °C 1015.5 hPa NNW 14.5 km/h 30.6 km/h 84 % 0 mm 162 W/m2
12:12 14.8 °C 12.3 °C 1015.5 hPa NNW 14.5 km/h 30.6 km/h 85 % 0 mm 146 W/m2
12:17 14.7 °C 12 °C 1015.5 hPa North 14.5 km/h 22.5 km/h 84 % 0 mm 209 W/m2
12:22 14.8 °C 12.1 °C 1015.5 hPa North 12.9 km/h 22.5 km/h 84 % 0 mm 367 W/m2
12:27 15.1 °C 12.4 °C 1015.5 hPa North 12.9 km/h 22.5 km/h 84 % 0 mm 322 W/m2
12:32 15.4 °C 12.5 °C 1015.5 hPa NNW 14.5 km/h 29 km/h 83 % 0 mm 338 W/m2
12:37 15.7 °C 12.6 °C 1015.5 hPa NNW 14.5 km/h 29 km/h 82 % 0 mm 334 W/m2
12:42 15.9 °C 12.7 °C 1015.5 hPa NNW 12.9 km/h 25.7 km/h 81 % 0 mm 332 W/m2
12:47 16 °C 12.3 °C 1015.5 hPa NW 14.5 km/h 25.7 km/h 79 % 0 mm 417 W/m2
12:52 16.2 °C 12.7 °C 1015.5 hPa NNW 14.5 km/h 25.7 km/h 80 % 0 mm 970 W/m2
12:57 16.8 °C 13.1 °C 1015.5 hPa NNW 12.9 km/h 25.7 km/h 79 % 0 mm 677 W/m2
13:02 17.3 °C 13 °C 1015.5 hPa NNW 16.1 km/h 33.8 km/h 76 % 0 mm 976 W/m2
13:07 17.6 °C 12.7 °C 1015.5 hPa NNW 17.7 km/h 35.4 km/h 73 % 0 mm 367 W/m2
13:12 17.7 °C 13 °C 1015.5 hPa NNW 16.1 km/h 37 km/h 74 % 0 mm 1007 W/m2
13:17 17.9 °C 13 °C 1015.5 hPa NNW 17.7 km/h 38.6 km/h 73 % 0 mm 1174 W/m2
13:22 17.9 °C 12.8 °C 1015.5 hPa NNW 16.1 km/h 38.6 km/h 72 % 0 mm 1097 W/m2
13:27 18 °C 12.7 °C 1015.8 hPa NNW 14.5 km/h 30.6 km/h 71 % 0 mm 441 W/m2
13:32 17.8 °C 12.4 °C 1015.5 hPa NNW 16.1 km/h 29 km/h 71 % 0 mm 397 W/m2
13:37 17.6 °C 12.3 °C 1015.8 hPa NNW 16.1 km/h 35.4 km/h 71 % 0 mm 381 W/m2
13:42 17.4 °C 12.3 °C 1015.8 hPa NNW 16.1 km/h 35.4 km/h 72 % 0 mm 315 W/m2
13:47 17.2 °C 12.1 °C 1015.8 hPa NNW 16.1 km/h 25.7 km/h 72 % 0 mm 297 W/m2
13:52 17.1 °C 12 °C 1015.8 hPa NNW 14.5 km/h 25.7 km/h 72 % 0 mm 476 W/m2
13:57 17.2 °C 12.3 °C 1015.8 hPa North 14.5 km/h 25.7 km/h 73 % 0 mm 1030 W/m2
14:02 17.4 °C 12.5 °C 1015.8 hPa North 12.9 km/h 25.7 km/h 73 % 0 mm 195 W/m2
14:08 17.4 °C 12.5 °C 1015.8 hPa North 11.3 km/h 30.6 km/h 73 % 0 mm 237 W/m2
14:13 17.3 °C 12.2 °C 1015.8 hPa North 12.9 km/h 30.6 km/h 72 % 0 mm 325 W/m2
14:18 17.3 °C 12.6 °C 1015.8 hPa NNW 12.9 km/h 29 km/h 74 % 0 mm 415 W/m2
14:23 17.8 °C 12.9 °C 1015.8 hPa NNW 11.3 km/h 24.1 km/h 73 % 0 mm 916 W/m2
14:28 18.1 °C 12.6 °C 1015.8 hPa NNW 14.5 km/h 25.7 km/h 70 % 0 mm 424 W/m2
14:33 18.2 °C 12.6 °C 1015.8 hPa NNW 16.1 km/h 29 km/h 70 % 0 mm 513 W/m2
14:34 18.2 °C 12.6 °C 1015.8 hPa NNW 16.1 km/h 29 km/h 70 % 0 mm 513 W/m2
14:39 18.3 °C 12.9 °C 1015.8 hPa North 14.5 km/h 25.7 km/h 71 % 0 mm 573 W/m2
14:44 18.5 °C 12.7 °C 1015.8 hPa North 14.5 km/h 24.1 km/h 69 % 0 mm 492 W/m2
14:49 18.5 °C 12.7 °C 1016.1 hPa North 14.5 km/h 25.7 km/h 69 % 0 mm 499 W/m2
14:54 18.6 °C 12.8 °C 1016.1 hPa NNW 12.9 km/h 25.7 km/h 69 % 0 mm 350 W/m2
14:59 18.4 °C 12.6 °C 1016.1 hPa NNW 12.9 km/h 24.1 km/h 69 % 0 mm 352 W/m2
15:04 18.4 °C 13.1 °C 1016.1 hPa NNW 11.3 km/h 24.1 km/h 71 % 0 mm 251 W/m2
15:09 18.3 °C 12.5 °C 1016.1 hPa North 9.7 km/h 20.9 km/h 69 % 0 mm 255 W/m2
15:14 18 °C 12.7 °C 1016.1 hPa North 11.3 km/h 25.7 km/h 71 % 0 mm 285 W/m2
15:19 17.9 °C 12.6 °C 1016.1 hPa North 12.9 km/h 25.7 km/h 71 % 0 mm 420 W/m2
15:20 17.9 °C 12.6 °C 1016.1 hPa North 11.3 km/h 22.5 km/h 71 % 0 mm 445 W/m2
15:25 18.1 °C 13.2 °C 1016.1 hPa North 9.7 km/h 22.5 km/h 73 % 0 mm 480 W/m2
15:30 18.1 °C 13.2 °C 1016.1 hPa North 9.7 km/h 20.9 km/h 73 % 0 mm 612 W/m2
15:35 18.4 °C 13.3 °C 1016.1 hPa North 11.3 km/h 20.9 km/h 72 % 0 mm 976 W/m2
15:40 18.8 °C 13.2 °C 1016.1 hPa North 11.3 km/h 22.5 km/h 70 % 0 mm 905 W/m2
15:45 19.2 °C 13.8 °C 1015.8 hPa North 11.3 km/h 24.1 km/h 71 % 0 mm 882 W/m2
15:50 19.6 °C 13.8 °C 1015.8 hPa NNW 11.3 km/h 24.1 km/h 69 % 0 mm 1025 W/m2
15:55 19.9 °C 13.6 °C 1015.8 hPa North 11.3 km/h 22.5 km/h 67 % 0 mm 1025 W/m2
16:00 19.7 °C 13.4 °C 1015.8 hPa NNE 11.3 km/h 22.5 km/h 67 % 0 mm 752 W/m2
16:05 19.2 °C 13.2 °C 1015.8 hPa NNE 14.5 km/h 25.7 km/h 68 % 0 mm 680 W/m2
16:10 19.1 °C 13.3 °C 1016.1 hPa NNE 14.5 km/h 25.7 km/h 69 % 0 mm 701 W/m2
16:15 19.2 °C 13.6 °C 1016.1 hPa North 12.9 km/h 22.5 km/h 70 % 0 mm 773 W/m2
16:20 19.2 °C 13.4 °C 1016.1 hPa NNE 12.9 km/h 22.5 km/h 69 % 0 mm 705 W/m2
16:25 19.2 °C 13.2 °C 1016.1 hPa NNE 11.3 km/h 22.5 km/h 68 % 0 mm 343 W/m2
16:30 19.1 °C 13.3 °C 1016.1 hPa NNE 11.3 km/h 22.5 km/h 69 % 0 mm 283 W/m2
16:35 19 °C 13.2 °C 1016.1 hPa NNE 11.3 km/h 20.9 km/h 69 % 0 mm 308 W/m2
16:40 19.1 °C 13.3 °C 1016.1 hPa North 11.3 km/h 22.5 km/h 69 % 0 mm 703 W/m2
16:45 19.1 °C 13.3 °C 1016.1 hPa NNE 12.9 km/h 24.1 km/h 69 % 0 mm 598 W/m2
16:50 19.3 °C 13.4 °C 1016.1 hPa NNE 9.7 km/h 24.1 km/h 69 % 0 mm 853 W/m2
16:55 19.7 °C 13.8 °C 1016.1 hPa North 8 km/h 24.1 km/h 69 % 0 mm 821 W/m2
17:00 19.6 °C 13.6 °C 1016.1 hPa North 11.3 km/h 22.5 km/h 68 % 0 mm 276 W/m2
17:05 19.1 °C 13.1 °C 1016.1 hPa NNE 12.9 km/h 25.7 km/h 68 % 0 mm 255 W/m2
17:10 18.8 °C 13.2 °C 1016.1 hPa NNE 11.3 km/h 25.7 km/h 70 % 0 mm 207 W/m2
17:15 18.5 °C 13.2 °C 1016.1 hPa NNE 11.3 km/h 22.5 km/h 71 % 0 mm 190 W/m2
17:20 18.2 °C 12.8 °C 1016.1 hPa NNE 12.9 km/h 24.1 km/h 71 % 0 mm 234 W/m2
17:25 18.1 °C 12.9 °C 1016.5 hPa NNE 12.9 km/h 24.1 km/h 72 % 0 mm 243 W/m2
17:30 18 °C 12.9 °C 1016.5 hPa North 12.9 km/h 22.5 km/h 72 % 0 mm 183 W/m2
17:35 17.8 °C 12.7 °C 1016.1 hPa North 16.1 km/h 24.1 km/h 72 % 0 mm 353 W/m2
17:40 17.8 °C 12.9 °C 1016.5 hPa North 16.1 km/h 24.1 km/h 73 % 0 mm 424 W/m2
17:45 17.8 °C 12.7 °C 1016.5 hPa NNE 14.5 km/h 29 km/h 72 % 0 mm 146 W/m2
17:50 17.7 °C 12.8 °C 1016.5 hPa NNE 14.5 km/h 29 km/h 73 % 0 mm 316 W/m2
17:55 17.4 °C 12.5 °C 1016.5 hPa NNE 12.9 km/h 29 km/h 73 % 0 mm 88 W/m2
17:58 17.3 °C 12.6 °C 1016.5 hPa NNE 14.5 km/h 29 km/h 74 % 0 mm 162 W/m2
18:03 17.1 °C 12.6 °C 1016.5 hPa NNE 11.3 km/h 25.7 km/h 75 % 0 mm 118 W/m2
18:08 17 °C 12.3 °C 1016.5 hPa NNE 11.3 km/h 22.5 km/h 74 % 0 mm 120 W/m2
18:12 17 °C 12.6 °C 1016.5 hPa NNE 12.9 km/h 22.5 km/h 75 % 0 mm 216 W/m2
18:17 17.1 °C 12.6 °C 1016.5 hPa North 9.7 km/h 20.9 km/h 75 % 0 mm 190 W/m2
18:22 17.2 °C 12.7 °C 1016.5 hPa North 9.7 km/h 22.5 km/h 75 % 0 mm 163 W/m2
18:27 17.1 °C 12.6 °C 1016.5 hPa North 11.3 km/h 22.5 km/h 75 % 0 mm 121 W/m2
18:32 17 °C 12.6 °C 1016.5 hPa North 11.3 km/h 24.1 km/h 75 % 0 mm 160 W/m2
18:37 17.1 °C 12.6 °C 1016.5 hPa North 11.3 km/h 24.1 km/h 75 % 0 mm 172 W/m2
18:42 17.3 °C 12.8 °C 1016.5 hPa NNW 11.3 km/h 20.9 km/h 75 % 0 mm 130 W/m2
18:47 17.5 °C 12.8 °C 1016.5 hPa NW 9.7 km/h 19.3 km/h 74 % 0 mm 118 W/m2
18:52 17.6 °C 12.7 °C 1016.5 hPa NNW 9.7 km/h 20.9 km/h 73 % 0 mm 111 W/m2
18:57 17.6 °C 12.5 °C 1016.5 hPa NNW 11.3 km/h 20.9 km/h 72 % 0 mm 56 W/m2
19:02 17.5 °C 12.4 °C 1016.5 hPa NW 11.3 km/h 20.9 km/h 72 % 0 mm 62 W/m2
19:07 17.4 °C 12.3 °C 1016.5 hPa NNW 9.7 km/h 19.3 km/h 72 % 0 mm 56 W/m2
19:09 17.4 °C 12.5 °C 1016.8 hPa NNW 11.3 km/h 24.1 km/h 73 % 0 mm 58 W/m2
19:14 17.3 °C 12.4 °C 1016.8 hPa NNW 12.9 km/h 24.1 km/h 73 % 0 mm 47 W/m2
19:19 17.2 °C 12.5 °C 1016.8 hPa NNW 11.3 km/h 22.5 km/h 74 % 0 mm 44 W/m2
19:24 17.1 °C 12.4 °C 1016.8 hPa North 8 km/h 16.1 km/h 74 % 0 mm 42 W/m2
19:29 17 °C 12.3 °C 1016.8 hPa NNE 8 km/h 16.1 km/h 74 % 0 mm 46 W/m2
19:34 16.9 °C 12.4 °C 1016.8 hPa NNE 8 km/h 16.1 km/h 75 % 0 mm 132 W/m2
19:39 16.9 °C 12.2 °C 1016.8 hPa North 8 km/h 17.7 km/h 74 % 0 mm 76 W/m2
19:44 17 °C 12.3 °C 1016.8 hPa North 9.7 km/h 19.3 km/h 74 % 0 mm 46 W/m2
19:49 17 °C 12.3 °C 1016.8 hPa North 8 km/h 19.3 km/h 74 % 0 mm 35 W/m2
19:54 17.1 °C 12.4 °C 1016.8 hPa North 6.4 km/h 14.5 km/h 74 % 0 mm 98 W/m2
19:59 17.1 °C 12.4 °C 1016.8 hPa NNW 6.4 km/h 16.1 km/h 74 % 0 mm 97 W/m2
20:04 17.2 °C 12.3 °C 1016.8 hPa NNW 8 km/h 20.9 km/h 73 % 0 mm 67 W/m2
20:09 17.1 °C 12.2 °C 1016.8 hPa NNW 8 km/h 20.9 km/h 73 % 0 mm 37 W/m2
20:14 17.1 °C 12.4 °C 1016.8 hPa NNW 6.4 km/h 12.9 km/h 74 % 0 mm 33 W/m2
20:19 16.9 °C 12.2 °C 1016.8 hPa NNW 6.4 km/h 12.9 km/h 74 % 0 mm 33 W/m2
20:24 16.8 °C 12.1 °C 1016.8 hPa NNW 6.4 km/h 16.1 km/h 74 % 0 mm 30 W/m2
20:29 16.7 °C 12.1 °C 1016.8 hPa North 8 km/h 16.1 km/h 74 % 0 mm 25 W/m2
20:34 16.6 °C 12.2 °C 1017.2 hPa North 9.7 km/h 16.1 km/h 75 % 0 mm 23 W/m2
20:39 16.5 °C 12.3 °C 1016.8 hPa NNE 8 km/h 16.1 km/h 76 % 0 mm 19 W/m2
20:44 16.3 °C 12.3 °C 1017.2 hPa NNE 6.4 km/h 12.9 km/h 77 % 0 mm 19 W/m2
20:49 16.2 °C 12.3 °C 1017.2 hPa NNE 4.8 km/h 11.3 km/h 78 % 0 mm 16 W/m2
20:54 16.1 °C 12.3 °C 1017.2 hPa NNE 1.6 km/h 9.7 km/h 78 % 0 mm 14 W/m2
20:59 15.9 °C 12.3 °C 1017.2 hPa NNE 3.2 km/h 11.3 km/h 79 % 0 mm 12 W/m2
21:04 15.8 °C 12.2 °C 1017.2 hPa NE 4.8 km/h 11.3 km/h 79 % 0 mm 9 W/m2
21:09 15.7 °C 12.3 °C 1017.2 hPa NE 4.8 km/h 9.7 km/h 80 % 0 mm 7 W/m2
21:14 15.7 °C 12.3 °C 1017.2 hPa NNE 4.8 km/h 9.7 km/h 80 % 0 mm 5 W/m2
21:19 15.5 °C 12.1 °C 1017.2 hPa NNE 4.8 km/h 9.7 km/h 80 % 0 mm 0 W/m2
21:24 15.4 °C 12.2 °C 1017.5 hPa NNE 4.8 km/h 9.7 km/h 81 % 0 mm 0 W/m2
21:29 15.3 °C 12.1 °C 1017.5 hPa NE 3.2 km/h 9.7 km/h 81 % 0 mm 0 W/m2
21:34 15.2 °C 12.2 °C 1017.5 hPa NNE 4.8 km/h 11.3 km/h 82 % 0 mm 0 W/m2
21:39 15.1 °C 12.1 °C 1017.5 hPa NNE 6.4 km/h 11.3 km/h 82 % 0 mm 0 W/m2
21:44 15 °C 12.1 °C 1017.5 hPa North 6.4 km/h 11.3 km/h 83 % 0 mm 0 W/m2
21:49 14.9 °C 12.1 °C 1017.5 hPa North 4.8 km/h 11.3 km/h 83 % 0 mm 0 W/m2
21:54 14.8 °C 11.9 °C 1017.5 hPa North 3.2 km/h 11.3 km/h 83 % 0 mm 0 W/m2
21:59 14.8 °C 11.9 °C 1017.5 hPa North 1.6 km/h 8 km/h 83 % 0 mm 0 W/m2
22:04 14.7 °C 12 °C 1017.8 hPa North 1.6 km/h 3.2 km/h 84 % 0 mm 0 W/m2
22:10 14.5 °C 11.8 °C 1017.8 hPa North 1.6 km/h 6.4 km/h 84 % 0 mm 0 W/m2
22:15 14.4 °C 11.7 °C 1017.8 hPa North 3.2 km/h 12.9 km/h 84 % 0 mm 0 W/m2
22:20 14.3 °C 11.6 °C 1017.8 hPa North 3.2 km/h 12.9 km/h 84 % 0 mm 0 W/m2
22:25 14.3 °C 11.6 °C 1017.8 hPa NNW 3.2 km/h 9.7 km/h 84 % 0 mm 0 W/m2
22:30 14.2 °C 11.6 °C 1017.8 hPa NNW 4.8 km/h 12.9 km/h 84 % 0 mm 0 W/m2
22:35 14.2 °C 11.6 °C 1017.8 hPa North 6.4 km/h 12.9 km/h 84 % 0 mm 0 W/m2
22:40 14.3 °C 11.6 °C 1017.8 hPa North 6.4 km/h 12.9 km/h 84 % 0 mm 0 W/m2
22:45 14.3 °C 11.4 °C 1017.8 hPa North 6.4 km/h 12.9 km/h 83 % 0 mm 0 W/m2
22:50 14.3 °C 11.4 °C 1017.5 hPa North 6.4 km/h 12.9 km/h 83 % 0 mm 0 W/m2
22:55 14.3 °C 11.4 °C 1017.8 hPa NNE 4.8 km/h 12.9 km/h 83 % 0 mm 0 W/m2
23:00 14.2 °C 11.6 °C 1017.5 hPa NNE 3.2 km/h 8 km/h 84 % 0 mm 0 W/m2
23:05 14.1 °C 11.4 °C 1017.8 hPa NNE 3.2 km/h 8 km/h 84 % 0 mm 0 W/m2
23:10 14 °C 11.3 °C 1017.5 hPa NNE 3.2 km/h 8 km/h 84 % 0 mm 0 W/m2
23:15 13.9 °C 11.4 °C 1017.8 hPa NNE 1.6 km/h 6.4 km/h 85 % 0 mm 0 W/m2
23:20 13.8 °C 11.3 °C 1017.8 hPa NNE 1.6 km/h 6.4 km/h 85 % 0 mm 0 W/m2
23:25 13.7 °C 11.2 °C 1017.8 hPa NNE 1.6 km/h 9.7 km/h 85 % 0 mm 0 W/m2
23:30 13.6 °C 11.3 °C 1017.8 hPa NNE 3.2 km/h 9.7 km/h 86 % 0 mm 0 W/m2
23:35 13.4 °C 11.1 °C 1017.8 hPa NNE 3.2 km/h 9.7 km/h 86 % 0 mm 0 W/m2
23:40 13.4 °C 11.1 °C 1017.8 hPa North 3.2 km/h 11.3 km/h 86 % 0 mm 0 W/m2
23:45 13.3 °C 11.2 °C 1017.8 hPa NNW 3.2 km/h 11.3 km/h 87 % 0 mm 0 W/m2
23:50 13.2 °C 11.3 °C 1017.8 hPa North 1.6 km/h 11.3 km/h 88 % 0 mm 0 W/m2
23:55 13.1 °C 11.2 °C 1017.8 hPa North 1.6 km/h 9.7 km/h 88 % 0 mm 0 W/m2
Delerius-Weather
Compliments of Weather Underground - 2.25 mb

Data updates at regular intervals.